TimeEST,TemperatureF,Dew PointF,Humidity,Sea Level PressureIn,VisibilityMPH,Wind Direction,Wind SpeedMPH,Gust SpeedMPH,PrecipitationIn,Events,Conditions,WindDirDegrees,DateUTC
12:15 AM,33.8,33.8,100,29.55,10.0,WSW,9.2,-,N/A,,Overcast,240,2013-02-28 05:15:00
1:15 AM,33.8,33.8,100,29.55,10.0,SW,6.9,-,N/A,,Overcast,230,2013-02-28 06:15:00
1:31 AM,33.8,32.0,93,29.54,10.0,WSW,10.4,-,N/A,,Overcast,240,2013-02-28 06:31:00
1:46 AM,33.8,32.0,93,29.54,10.0,WSW,9.2,-,N/A,,Overcast,240,2013-02-28 06:46:00
2:15 AM,33.8,32.0,93,29.55,7.0,Calm,Calm,-,N/A,,Overcast,250,2013-02-28 07:15:00
2:35 AM,33.8,32.0,93,29.55,7.0,Calm,Calm,-,N/A,,Overcast,260,2013-02-28 07:35:00
2:56 AM,33.8,32.0,93,29.55,7.0,Calm,Calm,-,N/A,,Overcast,0,2013-02-28 07:56:00
3:11 AM,33.8,32.0,93,29.55,7.0,Calm,Calm,-,N/A,,Overcast,0,2013-02-28 08:11:00
3:31 AM,33.8,32.0,93,29.54,7.0,Calm,Calm,-,N/A,,Overcast,0,2013-02-28 08:31:00
3:51 AM,33.8,32.0,93,29.55,7.0,Calm,Calm,-,N/A,,Overcast,0,2013-02-28 08:51:00
4:11 AM,33.8,33.8,100,29.54,5.0,Calm,Calm,-,N/A,,Overcast,0,2013-02-28 09:11:00
4:31 AM,33.8,33.8,100,29.54,5.0,Calm,Calm,-,N/A,,Overcast,0,2013-02-28 09:31:00
4:51 AM,33.8,33.8,100,29.55,4.0,Calm,Calm,-,N/A,,Overcast,0,2013-02-28 09:51:00
5:11 AM,33.8,33.8,100,29.55,3.0,WSW,5.8,-,N/A,,Overcast,250,2013-02-28 10:11:00
5:32 AM,33.8,33.8,100,29.56,3.0,West,5.8,-,N/A,Snow,Light Snow,270,2013-02-28 10:32:00
5:52 AM,33.8,33.8,100,29.56,2.0,West,5.8,-,N/A,Snow,Light Snow,270,2013-02-28 10:52:00
6:12 AM,33.8,33.8,100,29.57,2.0,West,5.8,-,N/A,Snow,Light Snow,280,2013-02-28 11:12:00
6:32 AM,33.8,33.8,100,29.57,2.5,West,5.8,-,N/A,Snow,Light Snow,280,2013-02-28 11:32:00
6:52 AM,33.8,33.8,100,29.58,2.5,WNW,5.8,-,N/A,Snow,Light Snow,300,2013-02-28 11:52:00
7:12 AM,33.8,33.8,100,29.58,5.0,WNW,6.9,-,N/A,Snow,Light Snow,300,2013-02-28 12:12:00
7:32 AM,33.8,33.8,100,29.59,3.0,NW,6.9,-,N/A,Snow,Light Snow,310,2013-02-28 12:32:00
7:52 AM,33.8,33.8,100,29.60,1.0,NW,8.1,-,N/A,Snow,Light Snow,310,2013-02-28 12:52:00
8:12 AM,33.8,33.8,100,29.61,3.0,NW,8.1,-,N/A,Snow,Light Snow,320,2013-02-28 13:12:00
8:33 AM,35.6,33.8,93,29.62,1.0,NW,8.1,-,N/A,Snow,Light Snow,310,2013-02-28 13:33:00
8:53 AM,35.6,33.8,93,29.63,4.0,NW,8.1,-,N/A,Snow,Light Snow,310,2013-02-28 13:53:00
9:13 AM,35.6,33.8,93,29.63,2.5,NW,8.1,-,N/A,Snow,Light Snow,310,2013-02-28 14:13:00
9:33 AM,35.6,33.8,93,29.64,2.5,NW,9.2,-,N/A,Snow,Light Snow,320,2013-02-28 14:33:00
9:53 AM,35.6,33.8,93,29.64,10.0,NNW,12.7,16.1,N/A,Rain,Light Rain,330,2013-02-28 14:53:00
10:13 AM,37.4,33.8,87,29.65,10.0,NW,12.7,17.3,N/A,,Overcast,320,2013-02-28 15:13:00
10:33 AM,37.4,33.8,87,29.66,10.0,NNW,11.5,-,N/A,,Overcast,330,2013-02-28 15:33:00
10:53 AM,37.4,33.8,87,29.66,10.0,NNW,10.4,-,N/A,,Overcast,330,2013-02-28 15:53:00
11:13 AM,37.4,33.8,87,29.67,10.0,NNW,11.5,16.1,N/A,,Overcast,330,2013-02-28 16:13:00
11:33 AM,37.4,33.8,87,29.68,10.0,NNW,9.2,17.3,N/A,,Overcast,340,2013-02-28 16:33:00
11:54 AM,37.4,32.0,81,29.69,10.0,NNW,12.7,20.7,N/A,,Overcast,340,2013-02-28 16:54:00
12:14 PM,37.4,33.8,87,29.70,10.0,NNW,11.5,-,N/A,,Overcast,340,2013-02-28 17:14:00
12:34 PM,37.4,33.8,87,29.70,10.0,NNW,12.7,17.3,N/A,,Overcast,330,2013-02-28 17:34:00
12:54 PM,39.2,32.0,75,29.70,10.0,NNW,6.9,17.3,N/A,,Overcast,340,2013-02-28 17:54:00
1:14 PM,37.4,33.8,87,29.71,10.0,NNW,11.5,-,N/A,,Overcast,330,2013-02-28 18:14:00
1:34 PM,37.4,33.8,87,29.71,10.0,NNW,9.2,-,N/A,,Overcast,330,2013-02-28 18:34:00
1:54 PM,39.2,32.0,75,29.72,10.0,NNW,11.5,16.1,N/A,,Overcast,330,2013-02-28 18:54:00
2:14 PM,37.4,32.0,81,29.73,10.0,NNW,10.4,16.1,N/A,,Overcast,340,2013-02-28 19:14:00
2:34 PM,37.4,32.0,81,29.73,10.0,North,8.1,-,N/A,,Overcast,350,2013-02-28 19:34:00
2:54 PM,37.4,30.2,75,29.74,10.0,North,11.5,17.3,N/A,,Overcast,350,2013-02-28 19:54:00
3:15 PM,37.4,32.0,81,29.75,10.0,North,10.4,-,N/A,,Overcast,350,2013-02-28 20:15:00
3:35 PM,37.4,30.2,75,29.76,10.0,North,13.8,20.7,N/A,,Overcast,350,2013-02-28 20:35:00
3:55 PM,37.4,30.2,75,29.77,10.0,NNW,12.7,17.3,N/A,,Overcast,340,2013-02-28 20:55:00
4:15 PM,37.4,30.2,75,29.78,10.0,North,8.1,-,N/A,,Overcast,350,2013-02-28 21:15:00
4:35 PM,37.4,30.2,75,29.79,10.0,NNW,10.4,-,N/A,,Overcast,340,2013-02-28 21:35:00
4:55 PM,37.4,30.2,75,29.80,10.0,NNW,10.4,-,N/A,,Overcast,330,2013-02-28 21:55:00
5:15 PM,35.6,30.2,81,29.81,10.0,NNW,11.5,16.1,N/A,,Overcast,330,2013-02-28 22:15:00
5:35 PM,35.6,30.2,81,29.82,10.0,NNW,10.4,-,N/A,,Overcast,330,2013-02-28 22:35:00
5:55 PM,35.6,30.2,81,29.83,10.0,NNW,10.4,-,N/A,,Overcast,330,2013-02-28 22:55:00
6:11 PM,35.6,30.2,81,29.84,10.0,NW,11.5,16.1,N/A,,Overcast,320,2013-02-28 23:11:00
6:31 PM,35.6,28.4,75,29.85,10.0,North,9.2,-,N/A,,Overcast,350,2013-02-28 23:31:00
6:51 PM,35.6,28.4,75,29.86,10.0,NNW,9.2,-,N/A,,Overcast,340,2013-02-28 23:51:00
7:11 PM,35.6,28.4,75,29.87,10.0,NNW,8.1,-,N/A,,Overcast,340,2013-03-01 00:11:00
7:31 PM,33.8,30.2,87,29.88,10.0,NNW,6.9,-,N/A,,Overcast,340,2013-03-01 00:31:00
7:51 PM,33.8,30.2,87,29.89,10.0,NNW,6.9,-,N/A,,Overcast,340,2013-03-01 00:51:00
8:11 PM,33.8,30.2,87,29.90,10.0,North,8.1,-,N/A,,Overcast,350,2013-03-01 01:11:00
8:31 PM,33.8,30.2,87,29.90,10.0,North,9.2,-,N/A,,Overcast,350,2013-03-01 01:31:00
8:51 PM,33.8,30.2,87,29.91,10.0,North,10.4,-,N/A,,Overcast,360,2013-03-01 01:51:00
9:11 PM,33.8,30.2,87,29.92,10.0,North,9.2,-,N/A,,Overcast,350,2013-03-01 02:11:00
9:32 PM,33.8,28.4,81,29.92,10.0,NNW,6.9,-,N/A,,Overcast,330,2013-03-01 02:32:00
9:52 PM,33.8,28.4,81,29.92,10.0,NNW,5.8,-,N/A,,Overcast,330,2013-03-01 02:52:00
10:12 PM,33.8,28.4,81,29.93,10.0,NNW,5.8,-,N/A,,Overcast,340,2013-03-01 03:12:00
10:32 PM,33.8,28.4,81,29.93,10.0,NNW,4.6,-,N/A,,Overcast,340,2013-03-01 03:32:00
11:12 PM,33.8,28.4,81,29.92,10.0,North,8.1,-,N/A,,Overcast,360,2013-03-01 04:12:00
11:32 PM,33.8,28.4,81,29.93,10.0,North,9.2,-,N/A,,Overcast,10,2013-03-01 04:32:00
11:52 PM,33.8,28.4,81,29.93,10.0,North,11.5,-,N/A,,Overcast,350,2013-03-01 04:52:00